This demonstration page uses our WeatherBlox Daily Observations layout. Learn more.

Left ArrowRight Arrow

38.83388, -104.82136

Hourly Observations for March 4, 2021

Temp ( °F °C ) Dew Point ( °F °C ) Humidity (%) Winds ( mph kmh ) Pressure ( in mb ) Visibility ( mi km ) Precip ( " mm )
12:58 am 00:58 Clear 40 4.4 8 -13.1 27 27 Calm 29.65 1004 10 16 0.00 0.00
1:58 am 01:58 Clear 42 5.4 5 -14.9 22 22 S 3 6 29.62 1003 10 16 0.00 0.00
2:58 am 02:58 Mostly Clear 40 4.4 6 -14.6 24 24 S 6 9 29.62 1003 10 16 0.00 0.00
3:58 am 03:58 Mostly Clear 37 2.6 9 -12.7 32 32 WNW 3 6 29.62 1003 10 16 0.00 0.00
4:58 am 04:58 Mostly Cloudy 37 2.9 10 -12.5 32 32 Calm 29.61 1003 10 16 0.00 0.00
5:58 am 05:58 Clear 37 2.6 9 -12.7 32 32 NW 3 6 29.59 1002 10 16 0.00 0.00
6:58 am 06:58 Mostly Cloudy 39 3.8 7 -13.7 27 27 Calm 29.55 1001 10 16 0.00 0.00
7:58 am 07:58 Mostly Cloudy 38 3.1 7 -13.7 28 28 Calm 29.59 1002 10 16 0.00 0.00
8:58 am 08:58 Mostly Cloudy 41 4.8 11 -11.4 30 30 N 5 7 29.54 1000 10 16 0.00 0.00
9:58 am 09:58 Cloudy 38 3.5 12 -11.1 34 34 SSE 5 7 29.57 1001 10 16 0.00 0.00
10:53 am 10:53 Mostly Cloudy with Light Showers 39 4 23 -5 52 52 N 8 13 29.54 1001 10 16 0.00 0.00
10:54 am 10:54 Mostly Cloudy 39 4 23 -5 52 52 NNE 7 11 29.54 1001 10 16 0.00 0.00
11:28 am 11:28 Cloudy 37 3 27 -3 65 65 N 10 17 29.58 1002 10 16 0.00 0.00
11:36 am 11:36 Cloudy with Light Rain/Snow 36 2 27 -3 70 70 NW 9 15 29.60 1002 10 16 0.00 0.00
11:37 am 11:37 Cloudy 36 2 27 -3 70 70 NW 9 15 29.60 1002 10 16 0.00 0.00
11:58 am 11:58 Cloudy 34 1 27 -2.9 75 75 N 9 15 29.63 1003 10 16 0.00 0.00
12:03 pm 12:03 Cloudy with Haze 34 1 27 -3 75 75 NNE 10 17 29.63 1003 5 8 0.00 0.00
12:13 pm 12:13 Cloudy with Mist and Fog 32 0 28 -2 87 87 N 6 9 29.65 1004 1 1 0.00 0.00
12:17 pm 12:17 Mostly Cloudy with Snow 32 0 28 -2 87 87 N 6 9 29.65 1004 3 5 0.00 0.00
12:18 pm 12:18 Mostly Cloudy with Freezing Fog 32 0 28 -2 87 87 N 6 9 29.65 1004 3 5 0.00 0.00
12:24 pm 12:24 Mostly Cloudy with Heavy Snow 30 -1 28 -2 93 93 N 9 15 29.65 1004 0 0 0.00 0.00
12:25 pm 12:25 Mostly Cloudy with Freezing Fog 30 -1 30 -1 100 100 N 8 13 29.65 1004 0 0 0.00 0.00
12:26 pm 12:26 Mostly Cloudy with Heavy Snow 30 -1 30 -1 100 100 N 9 15 29.65 1004 0 0 0.00 0.00
12:27 pm 12:27 Mostly Cloudy with Freezing Fog 30 -1 30 -1 100 100 N 13 20 29.65 1004 0 0 0.00 0.00
12:28 pm 12:28 Mostly Cloudy with Heavy Snow 30 -1 30 -1 100 100 N 14 22 29.65 1004 0 0 0.00 0.00
12:29 pm 12:29 Mostly Cloudy with Freezing Fog 30 -1 30 -1 100 100 NNW 15 24 29.64 1004 0 0 0.00 0.00
12:33 pm 12:33 Mostly Cloudy with Heavy Snow 30 -1 30 -1 100 100 NNW 14 22 29.64 1004 0 0 0.00 0.00
12:34 pm 12:34 Mostly Cloudy with Freezing Fog 30 -1 30 -1 100 100 N 15 24 29.66 1004 0 0 0.00 0.00
12:58 pm 12:58 Mostly Cloudy with Freezing Fog 31 -0.5 31 -0.5 100 100 N 15 24 29.64 1004 1 1 0.01 0.25
1:58 pm 13:58 Mostly Cloudy with Freezing Fog 31 -0.6 31 -0.6 100 100 N 9 15 29.62 1003 1 2 0.02 0.51
2:13 pm 14:13 Mostly Cloudy 32 0 32 0 100 100 NNW 10 17 29.60 1002 10 16 0.00 0.00
2:28 pm 14:28 Mostly Cloudy with Freezing Fog 32 0 32 0 100 100 N 13 20 29.61 1003 N/A 0.00 0.00
2:58 pm 14:58 Mostly Cloudy with Freezing Fog 31 -0.3 31 -0.4 99 99 N 17 28 29.64 1004 0 0 0.04 1.02
3:43 pm 15:43 Mostly Cloudy with Mist and Fog 32 0 32 0 100 100 NNW 20 31 29.66 1004 2 3 0.00 0.00
3:58 pm 15:58 Mostly Cloudy 32 0.1 32 0.2 100 100 NW 24 39 29.66 1004 10 16 0.02 0.51
4:03 pm 16:03 Mostly Cloudy 32 0 32 0 100 100 NW 18 30 29.66 1004 10 16 0.00 0.00
4:18 pm 16:18 Windy with Rain Showers Likely 34 1 27 -3 75 75 NW 20 31 29.65 1004 10 16 0.00 0.00
4:19 pm 16:19 Mostly Cloudy 34 1 27 -3 75 75 NW 20 31 29.65 1004 10 16 0.00 0.00
4:58 pm 16:58 Mostly Cloudy 34 1.2 27 -3 74 74 NNW 16 26 29.67 1005 10 16 0.00 0.00
5:58 pm 17:58 Mostly Cloudy 35 1.4 26 -3.1 72 72 NNW 17 28 29.72 1007 10 16 0.00 0.00
6:16 pm 18:16 Mostly Cloudy with Light Rain/Snow 34 1 27 -3 75 75 NNW 16 26 29.72 1007 10 16 0.00 0.00
6:17 pm 18:17 Mostly Cloudy 34 1 27 -3 75 75 NNW 17 28 29.72 1007 10 16 0.00 0.00
6:58 pm 18:58 Mostly Cloudy 35 1.7 26 -3.5 69 69 NNW 18 30 29.72 1007 10 16 0.00 0.00
7:01 pm 19:01 Windy with Rain Showers Likely 36 2 25 -4 65 65 NNW 21 33 29.72 1007 10 16 0.00 0.00
7:02 pm 19:02 Mostly Cloudy 36 2 25 -4 65 65 NNW 20 31 29.72 1007 10 16 0.00 0.00
7:03 pm 19:03 Windy with Rain Showers Likely 36 2 25 -4 65 65 NNW 20 31 29.72 1007 10 16 0.00 0.00
7:04 pm 19:04 Mostly Cloudy 36 2 25 -4 65 65 NNW 21 33 29.72 1007 10 16 0.00 0.00
7:05 pm 19:05 Windy with Rain Showers Likely 36 2 25 -4 65 65 NNW 21 33 29.72 1007 10 16 0.00 0.00
7:06 pm 19:06 Mostly Cloudy 36 2 25 -4 65 65 NNW 17 28 29.72 1007 10 16 0.00 0.00
7:07 pm 19:07 Windy with Rain Showers Likely 36 2 25 -4 65 65 NNW 20 31 29.72 1007 10 16 0.00 0.00
7:08 pm 19:08 Mostly Cloudy 36 2 25 -4 65 65 NNW 23 37 29.72 1007 10 16 0.00 0.00
7:09 pm 19:09 Windy with Rain Showers Likely 36 2 25 -4 65 65 NNW 23 37 29.72 1007 10 16 0.00 0.00
7:10 pm 19:10 Mostly Cloudy 36 2 25 -4 65 65 NNW 22 35 29.72 1007 10 16 0.00 0.00
7:11 pm 19:11 Windy with Rain Showers Likely 36 2 25 -4 65 65 NNW 22 35 29.98 1015 10 16 0.00 0.00
7:14 pm 19:14 Windy with Rain Showers Likely 36 2 25 -4 65 65 NNW 22 35 29.98 1015 10 16 0.00 0.00
7:15 pm 19:15 Mostly Cloudy 36 2 25 -4 65 65 NNW 21 33 29.99 1016 10 16 0.00 0.00
7:16 pm 19:16 Windy with Rain Showers Likely 36 2 25 -4 65 65 NNW 20 31 29.99 1016 10 16 0.00 0.00
7:17 pm 19:17 Mostly Cloudy 36 2 25 -4 65 65 NNW 17 28 29.99 1016 10 16 0.00 0.00
7:18 pm 19:18 Mostly Cloudy with Light Showers 36 2 27 -3 70 70 NNW 16 26 29.99 1016 10 16 0.00 0.00
7:19 pm 19:19 Mostly Cloudy 36 2 27 -3 70 70 NNW 17 28 29.99 1016 10 16 0.00 0.00
7:58 pm 19:58 Mostly Cloudy 36 2 25 -4 65 65 NNW 18 30 30.01 1016 10 16 0.00 0.00
8:58 pm 20:58 Mostly Cloudy 34 1.3 26 -3.1 73 73 NNW 25 41 29.79 1009 7 11 0.00 0.00
9:58 pm 21:58 Cloudy with Haze 34 1.2 26 -3.1 73 73 NNW 21 33 29.84 1010 6 10 0.00 0.00
10:23 pm 22:23 Mostly Cloudy 34 1 27 -3 75 75 N 24 39 29.83 1010 10 16 0.00 0.00
10:38 pm 22:38 Mostly Cloudy with Haze 34 1 27 -3 75 75 NNW 25 41 29.84 1011 3 5 0.00 0.00
10:58 pm 22:58 Mostly Cloudy 34 1.3 26 -3.1 73 73 N 22 35 29.88 1012 10 16 0.00 0.00
11:58 pm 23:58 Mostly Cloudy 34 1.2 27 -2.6 76 76 NW 23 37 29.93 1014 10 16 0.00 0.00

Powered by AerisWeather